Location: La Vergne
(36.0160°N, 86.5820°W)
Time: 09:59:27
(UTC-05:00)

BREEZE-M (TANK) - Pass Details

Date: 24 September 2017
Orbit: 332 x 17625 km, 49.5° (Epoch: 15 October)

Event Time Altitude Azimuth Distance (km) Brightness Sun altitude
Rises 19:18:56 0° 303° (WNW) 10,661 10.3 -8.7°
Reaches altitude 10° 19:29:51 10° 306° (NW) 6,892 9.1 -10.9°
Maximum altitude 19:44:33 74° 31° (NNE) 1,080 3.9 -13.9°
Enters shadow 19:47:20 22° 114° (ESE) 1,506 4.1 -14.4°
